Terug naar catalogus

STARLINK-34744

ActiefCommunicatieSSO
NORAD 64952·PAYLOAD·🇺🇸 United States

Gelanceerd Jul 26, 2025 vanaf Vandenberg Space Force Base

Loading…

Volgende Passages (komende 24 uur)

TLE

VersSource: CelesTrak SupGP

Epoch: Sep 15, 2026, 03:47 UTC

1 64952C 25158W   26258.15812500 -.00025116  00000+0 -77890-3 0  2580
2 64952  97.2844 116.5570 0001695 106.3624  99.8329 15.33482221    12

Volg STARLINK-34744 in realtime met AllMySat

Download on the App Store